GW1838 Weather Reports


time (UTC)temp
F
wind
direction
speed
knots
gust
knots
rain 1hr
in
rain 24hr
in
rain mn
in
humidity
%
barometer
mb
20260902040308 74 25 8.7 13.0 0.00 1.74 0.00 92 1015.3
20260902035807 74 33 7.8 13.0 0.00 1.74 1.74 92 1015.1
20260902035307 74 29 6.1 10.4 0.00 1.74 1.74 92 1015.0
20260902034807 73 30 6.1 10.4 0.00 1.74 1.74 92 1015.0
20260902033807 73 353 7.8 11.3 0.00 1.74 1.74 92 1015.0
20260902033307 73 349 9.6 12.2 0.01 1.74 1.74 92 1015.0
20260902032807 72 350 8.7 10.4 0.01 1.74 1.74 92 1014.9
20260902032307 72 346 7.8 11.3 0.01 1.74 1.74 92 1014.7
20260902030807 72 324 1.7 5.2 0.01 1.74 1.74 92 1014.8
20260902024807 72 253 3.5 10.4 0.02 1.74 1.74 91 1014.8
20260902024307 72 250 5.2 13.0 0.03 1.74 1.74 91 1015.0
20260902023307 73 241 6.1 10.4 0.05 1.73 1.73 92 1015.2
20260902021806 72 255 1.7 2.6 0.46 1.73 1.73 91 1015.4
20260902020307 73 311 5.2 12.2 1.26 1.73 1.73 91 1014.8
20260902015806 73 345 7.8 12.2 1.41 1.73 1.73 92 1014.3
20260902015307 73 19 3.5 8.7 1.55 1.73 1.73 91 1013.7
20260902014807 73 4 2.6 8.7 1.59 1.72 1.72 92 1013.5
20260902014307 73 321 3.5 8.7 1.64 1.71 1.71 92 1014.0
20260902012807 72 115 6.1 17.4 1.63 1.66 1.66 91 1013.3
20260902012309 73 90 11.3 20.0 1.56 1.58 1.58 91 1013.8
20260902011806 73 77 12.2 22.6 1.27 1.27 1.27 90 1014.7
20260902011306 74 48 18.2 24.3 0.89 0.89 0.89 88 1014.3
20260902010306 78 348 7.8 17.4 0.47 0.47 0.47 89 1013.0
20260902004807 80 248 1.7 4.3 0.13 0.13 0.13 89 1012.4
20260902003307 80 233 2.6 4.3 0.03 0.03 0.03 89 1012.1
20260902002807 80 212 1.7 5.2 0.03 0.03 0.03 89 1011.8
20260902002307 79 205 1.7 2.6 0.02 0.02 0.02 88 1012.1
20260902000307 80 196 4.3 6.1 0.00 0.00 0.00 87 1012.5
20260901234307 81 224 3.5 10.4 0.00 0.00 0.00 86 1012.3
20260901233306 81 243 5.2 11.3 0.00 0.00 0.00 85 1012.5
20260901231807 82 233 2.6 7.0 0.00 0.00 0.00 84 1012.5
20260901231307 82 233 3.5 7.8 0.00 0.00 0.00 84 1012.5
20260901230807 82 220 3.5 6.1 0.00 0.00 0.00 83 1012.3
20260901225806 82 223 4.3 10.4 0.00 0.00 0.00 83 1012.5
20260901225306 82 220 5.2 8.7 0.00 0.00 0.00 82 1012.3
20260901224306 82 226 2.6 7.8 0.00 0.00 0.00 83 1012.0
20260901223806 82 215 2.6 6.1 0.00 0.00 0.00 83 1012.0
20260901221807 82 212 5.2 10.4 0.00 0.00 0.00 82 1012.1
20260901214806 85 222 3.5 10.4 0.00 0.00 0.00 78 1012.3
20260901213806 85 197 4.3 10.4 0.00 0.00 0.00 77 1012.3
20260901211807 87 205 4.3 11.3 0.00 0.00 0.00 75 1012.3
20260901211307 87 206 3.5 10.4 0.00 0.00 0.00 76 1012.3
20260901210806 87 225 7.0 12.2 0.00 0.00 0.00 74 1012.4
20260901210307 88 209 3.5 7.8 0.00 0.00 0.00 74 1012.4
20260901205307 88 227 4.3 10.4 0.00 0.00 0.00 74 1012.4
20260901204807 88 230 2.6 8.7 0.00 0.00 0.00 75 1012.5
20260901203307 86 213 5.2 10.4 0.00 0.00 0.00 77 1012.4
20260901202806 86 208 5.2 11.3 0.00 0.00 0.00 76 1012.4
20260901202306 87 206 6.1 12.2 0.00 0.00 0.00 74 1012.4
20260901200806 89 219 5.2 10.4 0.00 0.00 0.00 72 1012.6
20260901200306 89 184 4.3 7.8 0.00 0.00 0.00 73 1012.7
20260901195807 88 221 4.3 10.4 0.00 0.00 0.00 73 1012.7
20260901195306 90 199 4.3 11.3 0.00 0.00 0.00 71 1012.6
20260901194807 90 251 2.6 6.1 0.00 0.00 0.00 72 1012.6
20260901192806 89 226 2.6 7.8 0.00 0.00 0.00 72 1012.6
20260901192306 89 238 5.2 8.7 0.00 0.00 0.00 72 1012.5
20260901191807 89 238 6.1 12.2 0.00 0.00 0.00 72 1012.5
20260901191306 89 230 5.2 10.4 0.00 0.00 0.00 72 1012.6
20260901190307 88 238 4.3 10.4 0.00 0.00 0.00 73 1012.8
20260901184806 90 236 3.5 7.8 0.00 0.00 0.00 70 1013.1
20260901184306 90 233 2.6 5.2 0.00 0.00 0.00 70 1013.2
20260901183806 89 233 2.6 4.3 0.00 0.00 0.00 72 1013.2
20260901182306 88 215 1.7 5.2 0.00 0.00 0.00 74 1013.3
20260901181806 88 247 1.7 2.6 0.00 0.00 0.00 75 1013.4
20260901180306 86 197 2.6 4.3 0.00 0.00 0.00 77 1013.4
20260901175806 86 199 1.7 4.3 0.00 0.00 0.00 77 1013.5
20260901174806 87 234 0.9 2.6 0.00 0.00 0.00 74 1013.6
20260901174306 87 261 0.0 1.7 0.00 0.00 0.00 74 1013.6
20260901173806 87 262 0.9 2.6 0.00 0.00 0.00 74 1013.6
20260901173307 87 250 0.9 2.6 0.00 0.00 0.00 74 1013.6
20260901171806 86 280 0.9 2.6 0.00 0.00 0.00 76 1013.8
20260901170806 86 288 0.0 0.0 0.00 0.00 0.00 76 1013.9
20260901170306 86 288 0.0 0.0 0.00 0.00 0.00 76 1014.1
20260901165806 87 231 0.0 0.0 0.00 0.00 0.00 75 1014.2
20260901164807 87 215 0.9 2.6 0.00 0.00 0.00 76 1014.1
20260901163806 89 252 0.0 2.6 0.00 0.00 0.00 72 1014.3
20260901162806 88 246 1.7 5.2 0.00 0.00 0.00 73 1014.4
20260901162306 87 255 1.7 4.3 0.00 0.00 0.00 73 1014.5
20260901161807 87 240 2.6 6.1 0.00 0.00 0.00 73 1014.6
20260901161306 88 221 2.6 6.1 0.00 0.00 0.00 72 1014.7
20260901160806 88 239 2.6 8.7 0.00 0.00 0.00 74 1014.6
20260901155806 86 187 4.3 8.7 0.00 0.00 0.00 76 1014.6
20260901155307 87 210 3.5 6.1 0.00 0.00 0.00 76 1014.6
20260901153806 84 214 2.6 6.1 0.00 0.00 0.00 79 1014.8
20260901152306 84 205 5.2 8.7 0.00 0.00 0.00 79 1014.7
20260901151306 86 202 3.5 7.8 0.00 0.00 0.00 77 1014.7
20260901145806 85 221 3.5 7.0 0.00 0.00 0.00 78 1014.7
20260901144806 84 234 4.3 6.1 0.00 0.00 0.00 80 1014.6
20260901141806 83 234 4.3 6.1 0.00 0.00 0.00 83 1014.7
20260901141307 82 252 2.6 5.2 0.00 0.00 0.00 84 1014.7
20260901140306 81 230 2.6 4.3 0.00 0.00 0.00 85 1014.7
20260901133806 80 236 2.6 4.3 0.00 0.00 0.00 86 1014.9
20260901132807 80 255 2.6 5.2 0.00 0.00 0.00 87 1014.9
20260901131806 79 229 2.6 7.0 0.00 0.00 0.00 87 1014.9
20260901130306 79 227 2.6 7.0 0.00 0.00 0.00 88 1015.0
20260901125309 78 245 2.6 4.3 0.00 0.00 0.00 89 1015.3
20260901124306 78 249 2.6 5.2 0.00 0.00 0.00 89 1015.3
20260901123806 78 242 2.6 6.1 0.00 0.00 0.00 89 1015.4
20260901122306 77 256 2.6 5.2 0.00 0.00 0.00 89 1015.4
20260901121806 77 245 2.6 7.8 0.00 0.00 0.00 89 1015.4
20260901121306 77 244 2.6 5.2 0.00 0.00 0.00 89 1015.4
20260901120806 77 241 2.6 6.1 0.00 0.00 0.00 89 1015.4
20260901120307 77 246 2.6 7.8 0.00 0.00 0.00 89 1015.4
20260901114806 77 247 3.5 7.0 0.00 0.00 0.00 89 1015.5
20260901114306 77 247 2.6 5.2 0.00 0.00 0.00 90 1015.5
20260901112806 76 248 2.6 5.2 0.00 0.00 0.00 90 1015.3
20260901112306 76 249 1.7 5.2 0.00 0.00 0.00 90 1015.4
20260901111309 76 260 2.6 4.3 0.00 0.00 0.00 90 1015.6
20260901110807 76 259 1.7 4.3 0.00 0.00 0.00 90 1015.6
20260901110306 76 250 2.6 4.3 0.00 0.00 0.00 90 1015.5
20260901104307 77 269 2.6 5.2 0.00 0.00 0.00 90 1015.2
20260901102306 77 242 4.3 8.7 0.00 0.00 0.00 90 1015.0
20260901101807 77 252 4.3 6.1 0.00 0.00 0.00 90 1014.9
20260901101306 77 240 2.6 6.1 0.00 0.00 0.00 90 1014.9
20260901100307 77 252 2.6 5.2 0.00 0.00 0.00 89 1014.9
20260901095807 77 244 1.7 6.1 0.00 0.00 0.00 89 1014.9
20260901094806 77 230 1.7 2.6 0.00 0.00 0.00 89 1015.0
20260901093306 77 239 3.5 7.0 0.00 0.00 0.00 89 1015.2
20260901092808 77 233 3.5 7.8 0.00 0.00 0.00 89 1015.2
20260901091806 77 244 2.6 6.1 0.00 0.00 0.00 89 1015.2
20260901090806 77 227 2.6 6.1 0.00 0.00 0.00 89 1015.1
20260901090306 77 237 2.6 7.8 0.00 0.00 0.00 89 1015.2
20260901085806 77 231 3.5 6.1 0.00 0.00 0.00 89 1015.3
20260901084806 77 234 3.5 7.8 0.00 0.00 0.00 89 1015.4
20260901083806 77 235 5.2 10.4 0.00 0.00 0.00 89 1015.4
20260901082806 77 238 4.3 7.8 0.00 0.01 0.00 89 1015.4
20260901082306 77 240 2.6 8.7 0.00 0.01 0.00 89 1015.3
20260901080806 76 235 5.2 10.4 0.00 0.01 0.00 89 1015.3
20260901074806 76 233 3.5 7.8 0.00 0.01 0.00 89 1015.5
20260901073306 76 219 2.6 7.8 0.00 0.01 0.00 89 1015.6
20260901072806 76 224 1.7 4.3 0.00 0.01 0.00 89 1015.6
20260901071306 76 228 1.7 5.2 0.00 0.01 0.00 89 1015.7
20260901070806 76 235 1.7 5.2 0.00 0.01 0.00 89 1015.8
20260901070306 76 235 2.6 5.2 0.00 0.01 0.00 89 1015.8
20260901065306 76 233 1.7 6.1 0.00 0.01 0.00 89 1015.8
20260901064806 76 212 2.6 5.2 0.00 0.01 0.00 88 1015.8
20260901064306 76 227 3.5 6.1 0.00 0.01 0.00 88 1015.9
20260901063305 76 213 1.7 5.2 0.00 0.01 0.00 88 1016.1
20260901062806 76 239 4.3 7.8 0.00 0.01 0.00 88 1016.1
20260901062310 76 218 4.3 7.0 0.00 0.01 0.00 88 1016.2
20260901061306 76 218 2.6 6.1 0.00 0.01 0.00 88 1016.2
20260901060805 76 217 1.7 5.2 0.00 0.01 0.00 88 1016.4
20260901060306 76 207 2.6 4.3 0.00 0.01 0.00 88 1016.4
20260901055806 76 202 1.7 4.3 0.00 0.01 0.00 87 1016.5
20260901054305 76 228 2.6 6.1 0.00 0.05 0.00 87 1016.7
20260901051306 76 214 2.6 6.1 0.00 0.16 0.00 87 1016.8
20260901050306 75 221 2.6 7.8 0.00 0.17 0.00 87 1016.7
20260901045806 75 212 2.6 8.7 0.00 0.17 0.00 87 1016.8
20260901045307 75 207 2.6 6.1 0.00 0.17 0.00 87 1016.8
20260901044306 75 215 2.6 5.2 0.00 0.24 0.00 87 1016.9
20260901043806 75 219 2.6 4.3 0.00 0.34 0.00 87 1017.0
20260901041805 75 207 1.7 4.3 0.00 0.54 0.00 86 1017.0
20260901041306 75 208 2.6 5.2 0.00 0.54 0.00 86 1017.0
20260901040838 75 205 2.6 5.2 0.00 0.54 0.00 86 1017.1